FENGYUN 1C DEB, 46451

Orbit data source: Space-Track

FENGYUN 1C DEB, 46451 is space debris in SSO originally from a launch on Mon, 10 May 1999 UTC launched from the Taiyaun Space Center, China (TSC). Fengyun 1C debris stems from the Chinese weather satellite Fengyun-1C, which was intentionally destroyed by a Chinese anti-satellite missile in 2007. This event dramatically increased the amount of space debris, with thousands of trackable fragments posing hazards to satellites and human spaceflight. The Fengyun 1C debris cloud has become a focal point in discussions about space sustainability and the need for international regulations to prevent the creation of new debris.

Loading next visibility...
Identifier
46451, 1999-025EZG
Orbit
SSO
Country
Flag of CNCN / PRC
Related business
Manufacturer
Unknown
Mission
Spacecraft
Bus & Motor
Unknown
Mass
Unknown
Launch date (UTC)
1999-05-10 (27 years ago)
Launch vehicle
Unknown
Launch site
Taiyaun Space Center, China (TSC)
Object type
Payload
Rocket body
Debris
Shape & HBR
Unknown shape, 0.1 m
Radar Cross Section
Small (<0.1 m²)

Expand to show TLE details & history
Last TLE update: 23 hours ago

TLE from 23 hours ago
0 FENGYUN 1C DEB
1 46451U 99025EZG 26235.78343122  .00003641  00000-0  14089-2 0  9991
2 46451  98.1442 240.8915 0164996 158.6254  14.1707 14.23402058606174
Epoch: 2026-08-23T18:48Z
TLE epoch observation values (Epoch: 2026-08-23T18:48:08.457Z)
Latitude
6.58695°
Longitude
167.72349°
Altitude
701.236 km
Speed
7.566 km/s
True Right ascension
04h 07m 19s
True Declination
6° 32' 51"
Sunlit
Object was in daylight at epoch
Visualization orbit readout
Latitude
Unknown
Longitude
Unknown
Altitude
Unknown
Speed
Unknown
Apparent Right ascension
Unknown
Apparent Declination
Unknown
Sunlit
N/A
Visualization observer readout
Local Sidereal Time
08:29:49
Azimuth
Unknown
Elevation
Unknown
Doppler factor
Unknown
Orbital elements
Apogee altitude
929.615 km
Perigee altitude
692.379 km
Semi-major axis
7,189.134 km
Eccentricity
0.0165
Inclination
98.1442°
RAAN
240.8915°
Arg. of periapsis
158.6254°
True anomaly
14.643°
Mean anomaly
14.1707°
Eccentric anomaly
14.4059°
Mean motion
3.56064 °/min
Orbital period
101.11 mins
BSTAR
0.0014089
Loading maneuver chart data...
Computing Atmospheric mass density...

Documentation

Showing up to 5 results
|